CAPE
0 0 0 0 0 0 0 0 0 0 0 0 0 0 0 0 0 0 0 0 0 0 0 0 0 0 0 0 0 0 0 0 53 1644 1746 2230 1974 2151 1994 1823 1954 1627 1453 1231
0 0 0 0 0 0 0 0 0 0 0 0 0 0 0 0 0 0 0 0 0 0 0 0 0 0 0 0 0 0 0 0 0 658 1958 2219 2139 2053 2002 2079 2097 1957 1833 1594
0 0 0 0 0 0 0 0 0 0 0 0 0 0 0 0 0 0 0 0 0 0 0 0 0 0 0 0 0 0 0 0 0 663 1920 2367 2141 1961 2031 1967 1724 1688 1755 1743
0 0 0 0 0 0 0 0 0 0 0 0 0 0 0 0 0 0 0 0 0 0 0 0 0 0 0 0 0 0 0 0 0 478 1248 2145 1930 1746 1415 1277 989 1120 1394 1544
0 0 0 0 0 0 0 0 0 0 0 0 0 0 0 0 0 0 0 0 0 0 0 0 0 0 0 0 0 1 43 181 24 599 1376 1970 1882 1337 1111 1254 1387 1546 1657 1621
0 0 0 0 0 0 0 0 0 0 0 0 0 0 0 0 0 0 0 0 0 0 0 1 0 0 0 0 0 40 114 245 494 755 1543 2124 1962 1453 1332 1438 1352 1281 1218 1242
0 0 0 0 0 0 0 0 0 0 0 0 0 0 0 0 0 0 0 3 0 6 0 1 7 0 4 0 20 70 135 336 411 818 1141 1445 1406 1418 1492 1625 1584 1609 1319 1199
0 0 0 0 0 0 0 0 0 0 0 0 0 0 0 0 0 29 66 66 31 0 0 4 49 4 0 2 12 71 109 212 594 618 1021 1499 1427 1191 1266 1355 1438 1756 1790 1499
0 0 0 0 0 0 0 0 0 0 0 0 0 0 0 0 58 116 100 37 19 29 10 35 95 43 9 24 3 18 45 76 489 985 1050 1064 1170 1364 1601 2173 2341 2198 2109 1750
0 0 0 0 0 0 0 0 0 10 0 0 0 0 0 0 26 5 99 10 13 13 7 98 139 100 64 2 0 11 26 40 243 645 1214 1359 1480 1559 1807 2054 2026 1910 1448 1074
0 0 0 0 0 0 0 0 0 0 1 0 0 0 0 3 1 22 32 27 9 0 0 14 236 314 266 4 0 5 8 16 4 192 750 1271 1332 1281 1381 1352 1002 1066 864 718
0 0 0 0 0 0 0 0 2 29 0 15 157 0 0 0 14 9 6 15 11 1 0 0 0 2 1 144 1 0 0 9 0 0 401 816 1009 1002 870 664 837 662 713 693
0 0 0 0 0 0 0 0 0 12 9 2 56 1 55 25 79 25 32 26 27 0 5 12 5 10 7 0 0 0 0 2 0 0 6 159 750 802 772 494 548 496 506 404
0 0 0 0 0 0 0 0 0 41 1 37 54 99 92 132 81 63 70 91 1 0 0 0 0 0 0 0 0 0 0 4 1 6 5 3 525 792 715 186 291 276 331 159
0 0 0 0 0 0 0 0 0 14 7 23 51 128 145 185 86 8 54 12 1 2 0 0 0 0 0 0 0 0 0 0 0 0 1 96 118 239 149 9 164 278 63 55
0 0 0 0 0 0 1 0 0 0 24 60 113 152 0 28 0 44 40 6 1 0 0 0 0 0 0 0 1 0 0 0 0 0 3 5 4 5 4 4 161 152 60 105
0 0 0 0 0 0 0 0 0 0 62 129 136 75 90 8 15 33 14 12 13 0 0 0 0 0 0 0 0 0 0 0 0 0 0 10 9 3 7 7 257 137 91 203
0 0 0 0 0 0 0 0 0 6 1 46 15 23 22 1 1 24 16 30 7 0 4 1 0 0 0 0 0 0 0 0 0 0 0 39 25 1 8 40 123 67 70 24
0 0 0 0 0 0 0 0 0 0 2 1 12 37 47 47 26 3 1 17 14 20 0 0 0 0 0 0 0 0 0 0 0 0 11 26 1 3 15 85 195 42 81 73
0 1 0 0 0 0 0 6 3 0 0 37 0 0 49 39 0 0 0 5 0 0 0 0 0 0 0 0 0 0 0 0 0 0 0 2 2 5 40 6 54 47 77 57
0 0 0 0 0 0 0 0 0 0 0 0 0 11 31 0 1 0 0 0 0 0 0 0 0 0 0 0 0 0 0 0 0 0 0 1 2 49 11 11 119 44 4 5
0 0 0 0 0 0 0 0 0 0 0 0 0 0 10 0 0 0 0 0 0 0 0 0 0 0 0 0 0 0 0 0 0 0 0 1 5 120 73 110 57 1 0 0
0 0 0 0 0 7 2 0 0 0 0 0 31 52 0 0 0 0 0 0 0 0 0 0 0 0 0 0 0 0 0 0 0 0 0 14 23 79 71 35 1 3 0 0
0 0 0 0 0 0 0 0 0 0 0 0 0 0 0 0 0 0 0 0 0 0 0 0 0 0 0 0 0 0 0 0 0 0 15 16 6 46 6 7 2 0 0 0
0 0 0 0 0 0 0 0 0 0 0 0 0 0 0 0 0 0 0 0 0 0 0 0 0 0 0 0 0 0 0 0 0 9 20 7 40 4 7 0 0 0 0 0
5 6 0 0 0 0 0 0 0 0 0 0 0 0 0 0 0 0 0 0 0 0 0 0 0 0 0 0 0 0 0 0 4 17 82 75 11 26 0 0 0 0 0 0
CIN
-0 -0 -0 -0 -0 -0 -0 -0 -0 -0 -0 -0 -0 -0 -0 -0 -0 -0 -0 -0 -0 -0 -0 -0 -0 -0 -0 -0 -0 -0 -0 -0 -186 -100 -89 -42 -70 -53 -62 -63 -57 -53 -32 -19
-0 -0 -0 -0 -0 -0 -0 -0 -0 -0 -0 -0 -0 -0 -0 -0 -0 -0 -0 -0 -0 -0 -0 -0 -0 -0 -0 -0 -0 -0 -0 -0 -0 -141 -83 -51 -44 -55 -39 -43 -40 -30 -16 -16
-0 -0 -0 -0 -0 -0 -0 -0 -0 -0 -0 -0 -0 -0 -0 -0 -0 -0 -0 -0 -0 -0 -0 -0 -0 -0 -0 -0 -0 -0 -0 -0 -0 -212 -66 -45 -54 -59 -43 -33 -42 -44 -35 -24
-0 -0 -0 -0 -0 -0 -0 -0 -0 -0 -0 -0 -0 -0 -0 -0 -0 -0 -0 -0 -0 -0 -0 -0 -0 -0 -0 -0 -0 -0 -0 -0 -0 -313 -146 -56 -48 -28 -31 -41 -45 -41 -49 -44
-0 -0 -0 -0 -0 -0 -0 -0 -0 -0 -0 -0 -0 -0 -0 -0 -0 -0 -0 -0 -0 -0 -0 -0 -0 -0 -0 -0 -0 -15 -414 -400 -512 -335 -169 -73 -63 -64 -80 -55 -47 -56 -65 -73
-0 -0 -0 -0 -0 -0 -0 -0 -0 -0 -0 -0 -0 -0 -0 -0 -0 -0 -0 -0 -0 -0 -0 -17 -0 -0 -0 -0 -0 -162 -167 -357 -344 -294 -144 -94 -62 -171 -81 -58 -48 -40 -45 -55
-0 -0 -0 -0 -0 -0 -0 -0 -0 -0 -0 -0 -0 -0 -0 -0 -0 -0 -0 -19 -0 -6 -0 -20 -47 -0 -47 -5 -53 -106 -145 -281 -317 -234 -176 -122 -136 -156 -94 -46 -36 -35 -40 -36
-0 -0 -0 -0 -0 -0 -0 -0 -0 -0 -0 -0 -0 -0 -0 -0 -0 -28 -20 -17 -16 -1 -0 -50 -51 -62 -0 -117 -4 -55 -98 -105 -133 -200 -197 -154 -115 -127 -115 -108 -76 -24 -21 -33
-0 -0 -0 -0 -0 -0 -0 -0 -0 -0 -0 -0 -0 -0 -0 -0 -17 -6 -11 -35 -2 -2 -72 -36 -42 -66 -92 -106 -20 -20 -29 -64 -103 -71 -90 -127 -173 -159 -107 -62 -36 -18 -13 -22
-0 -0 -0 -0 -0 -0 -0 -0 -0 -0 -0 -0 -0 -0 -0 -0 -6 -10 -1 -41 -49 -63 -33 -17 -36 -58 -72 -71 -0 -2 -30 -70 -107 -85 -70 -77 -105 -104 -81 -47 -38 -38 -57 -71
-0 -0 -0 -0 -0 -0 -0 -0 -0 -0 -0 -0 -0 -0 -0 -1 -4 -17 -23 -25 -34 -0 -0 -25 -14 -0 -20 -38 -0 -13 -40 -29 -41 -104 -72 -66 -86 -108 -102 -111 -155 -108 -107 -62
-0 -0 -0 -0 -0 -0 -0 -0 -2 -0 -0 -0 -0 -0 -0 -1 -22 -21 -5 -9 -13 -2 -0 -0 -0 -2 -0 -7 -20 -0 -0 -2 -0 -0 -61 -51 -68 -99 -126 -158 -107 -121 -80 -53
-0 -0 -0 -0 -0 -0 -0 -0 -0 -8 -17 -0 -0 -9 -36 -32 -9 -5 -3 -4 -16 -0 -3 -11 -0 -0 -16 -0 -0 -0 -0 -5 -0 -10 -26 -53 -38 -45 -62 -119 -117 -94 -61 -55
-0 -0 -0 -0 -0 -0 -0 -0 -0 -0 -0 -2 -0 -0 -19 -0 -0 -14 -3 -1 -2 -0 -0 -0 -0 -0 -5 -0 -0 -0 -0 -56 -0 -68 -41 -30 -22 -5 -13 -93 -88 -91 -53 -102
-0 -0 -0 -0 -0 -0 -0 -0 -0 -0 -0 -1 -22 -0 -0 -0 -8 -76 -7 -24 -1 -24 -0 -0 -0 -0 -0 -0 -0 -0 -0 -0 -0 -0 -12 -40 -56 -29 -31 -51 -41 -42 -153 -155
-0 -0 -0 -0 -0 -0 -0 -0 -0 -0 -10 -4 -0 -0 -0 -1 -0 -14 -1 -2 -5 -0 -0 -0 -0 -0 -0 -0 -0 -0 -0 -0 -0 -0 -0 -0 -0 -1 -0 -0 -27 -52 -118 -77
-0 -0 -0 -0 -0 -0 -0 -0 -0 -0 -9 -0 -0 -0 -0 -0 -0 -0 -1 -2 -0 -0 -0 -0 -0 -0 -0 -0 -0 -0 -0 -0 -0 -0 -0 -0 -0 -0 -0 -29 -6 -27 -64 -17
-0 -0 -0 -0 -0 -0 -0 -0 -0 -0 -0 -0 -1 -1 -5 -3 -0 -0 -0 -0 -0 -0 -0 -0 -0 -0 -0 -0 -0 -0 -0 -0 -0 -0 -0 -0 -0 -0 -0 -60 -16 -19 -24 -90
-0 -0 -0 -0 -0 -0 -0 -0 -0 -0 -0 -0 -1 -0 -0 -0 -1 -0 -0 -0 -0 -0 -0 -0 -0 -0 -0 -0 -0 -0 -0 -0 -0 -0 -0 -0 -0 -0 -0 -33 -2 -8 -8 -31
-0 -0 -0 -0 -0 -0 -0 -3 -2 -0 -0 -0 -0 -0 -0 -0 -0 -0 -0 -0 -0 -0 -0 -0 -0 -0 -0 -0 -0 -0 -0 -0 -0 -0 -0 -0 -0 -0 -0 -4 -1 -1 -19 -35
-0 -0 -0 -0 -0 -0 -0 -0 -0 -0 -0 -0 -0 -0 -0 -0 -0 -0 -0 -0 -0 -0 -0 -0 -0 -0 -0 -0 -0 -0 -0 -0 -0 -0 -0 -0 -0 -6 -5 -6 -0 -15 -7 -54
-0 -0 -0 -0 -0 -0 -0 -0 -0 -0 -0 -0 -0 -0 -0 -0 -0 -0 -0 -0 -0 -0 -0 -0 -0 -0 -0 -0 -0 -0 -0 -0 -0 -0 -0 -0 -0 -0 -1 -3 -25 -0 -0 -0
-0 -0 -0 -0 -0 -1 -0 -0 -0 -0 -0 -0 -0 -0 -0 -0 -0 -0 -0 -0 -0 -0 -0 -0 -0 -0 -0 -0 -0 -0 -0 -0 -0 -0 -0 -0 -0 -2 -1 -0 -0 -0 -0 -0
-0 -0 -0 -0 -0 -0 -0 -0 -0 -0 -0 -0 -0 -0 -0 -0 -0 -0 -0 -0 -0 -0 -0 -0 -0 -0 -0 -0 -0 -0 -0 -0 -0 -0 -0 -0 -0 -0 -3 -2 -0 -0 -0 -0
-0 -0 -0 -0 -0 -0 -0 -0 -0 -0 -0 -0 -0 -0 -0 -0 -0 -0 -0 -0 -0 -0 -0 -0 -0 -0 -0 -0 -0 -0 -0 -0 -0 -0 -0 -1 -0 -1 -3 -0 -0 -0 -0 -0
-0 -6 -0 -0 -0 -0 -0 -0 -0 -0 -0 -0 -0 -0 -0 -0 -0 -0 -0 -0 -0 -0 -0 -0 -0 -0 -0 -0 -0 -0 -0 -0 -0 -0 -0 -0 -0 -0 -0 -0 -0 -0 -0 -0
Wind_Speed
nan nan nan nan nan nan nan nan nan nan nan nan nan nan nan nan nan nan nan nan nan nan nan nan nan nan nan nan nan nan nan nan nan 44 51 56 58 54 55 57 51 58 59 58
nan nan nan nan nan nan nan nan nan nan nan nan nan nan nan nan nan nan nan nan nan nan nan nan nan nan nan nan nan nan nan nan nan 37 40 50 52 54 60 57 57 55 55 57
nan nan nan nan nan nan nan nan nan nan nan nan nan nan nan nan nan nan nan nan nan nan nan nan nan nan nan nan nan nan nan nan nan 32 36 45 47 46 53 56 58 54 52 52
nan nan nan nan nan nan nan nan nan nan nan nan nan nan nan nan nan nan nan nan nan nan nan nan nan nan nan nan nan nan nan nan nan 39 36 36 40 37 36 38 44 45 40 42
nan nan nan nan nan nan nan nan nan nan nan nan nan nan nan nan nan nan nan nan nan nan nan nan nan nan nan nan nan nan nan 35 nan 35 35 30 38 35 34 32 32 30 35 36
nan nan nan nan nan nan nan nan nan nan nan nan nan nan nan nan nan nan nan nan nan nan nan nan nan nan nan nan nan nan 36 38 30 21 26 27 22 35 37 24 23 26 33 39
nan nan nan nan nan nan nan nan nan nan nan nan nan nan nan nan nan nan nan nan nan nan nan nan nan nan nan nan nan nan 37 40 34 26 24 23 21 32 33 26 24 22 24 29
nan nan nan nan nan nan nan nan nan nan nan nan nan nan nan nan nan nan nan nan nan nan nan nan nan nan nan nan nan nan 38 34 35 32 32 34 22 24 24 22 21 21 22 24
nan nan nan nan nan nan nan nan nan nan nan nan nan nan nan nan nan 47 47 nan nan nan nan nan nan nan nan nan nan nan nan nan 31 33 28 32 32 30 24 22 21 19 19 21
nan nan nan nan nan nan nan nan nan nan nan nan nan nan nan nan nan nan nan nan nan nan nan nan 28 34 nan nan nan nan nan nan 31 32 31 32 31 27 25 24 25 22 22 22
nan nan nan nan nan nan nan nan nan nan nan nan nan nan nan nan nan nan nan nan nan nan nan nan 27 25 33 nan nan nan nan nan nan 40 34 31 29 26 25 23 21 21 23 26
nan nan nan nan nan nan nan nan nan nan nan nan 39 nan nan nan nan nan nan nan nan nan nan nan nan nan nan 36 nan nan nan nan nan nan 36 31 24 21 22 23 19 19 19 19
nan nan nan nan nan nan nan nan nan nan nan nan nan nan nan nan nan nan nan nan nan nan nan nan nan nan nan nan nan nan nan nan nan nan nan 34 32 23 22 25 24 19 19 20
nan nan nan nan nan nan nan nan nan nan nan nan nan nan nan 14 nan nan nan nan nan nan nan nan nan nan nan nan nan nan nan nan nan nan nan nan 25 14 21 28 27 22 22 25
nan nan nan nan nan nan nan nan nan nan nan nan nan 12 11 11 nan nan nan nan nan nan nan nan nan nan nan nan nan nan nan nan nan nan nan nan 20 12 21 nan 33 24 nan nan
nan nan nan nan nan nan nan nan nan nan nan nan 18 10 nan nan nan nan nan nan nan nan nan nan nan nan nan nan nan nan nan nan nan nan nan nan nan nan nan nan 36 31 nan 31
nan nan nan nan nan nan nan nan nan nan nan 21 16 nan nan nan nan nan nan nan nan nan nan nan nan nan nan nan nan nan nan nan nan nan nan nan nan nan nan nan 39 34 nan 32
nan nan nan nan nan nan nan nan nan nan nan nan nan nan nan nan nan nan nan nan nan nan nan nan nan nan nan nan nan nan nan nan nan nan nan nan nan nan nan nan 36 nan nan nan
nan nan nan nan nan nan nan nan nan nan nan nan nan nan nan nan nan nan nan nan nan nan nan nan nan nan nan nan nan nan nan nan nan nan nan nan nan nan nan nan 32 nan nan nan
nan nan nan nan nan nan nan nan nan nan nan nan nan nan nan nan nan nan nan nan nan nan nan nan nan nan nan nan nan nan nan nan nan nan nan nan nan nan nan nan nan nan nan nan
nan nan nan nan nan nan nan nan nan nan nan nan nan nan nan nan nan nan nan nan nan nan nan nan nan nan nan nan nan nan nan nan nan nan nan nan nan nan nan nan 26 nan nan nan
nan nan nan nan nan nan nan nan nan nan nan nan nan nan nan nan nan nan nan nan nan nan nan nan nan nan nan nan nan nan nan nan nan nan nan nan nan 19 nan 25 nan nan nan nan
nan nan nan nan nan nan nan nan nan nan nan nan nan nan nan nan nan nan nan nan nan nan nan nan nan nan nan nan nan nan nan nan nan nan nan nan nan nan nan nan nan nan nan nan
nan nan nan nan nan nan nan nan nan nan nan nan nan nan nan nan nan nan nan nan nan nan nan nan nan nan nan nan nan nan nan nan nan nan nan nan nan nan nan nan nan nan nan nan
nan nan nan nan nan nan nan nan nan nan nan nan nan nan nan nan nan nan nan nan nan nan nan nan nan nan nan nan nan nan nan nan nan nan nan nan nan nan nan nan nan nan nan nan
nan nan nan nan nan nan nan nan nan nan nan nan nan nan nan nan nan nan nan nan nan nan nan nan nan nan nan nan nan nan nan nan nan nan nan nan nan nan nan nan nan nan nan nan
Wind_Direction
nan nan nan nan nan nan nan nan nan nan nan nan nan nan nan nan nan nan nan nan nan nan nan nan nan nan nan nan nan nan nan nan nan 284 271 270 273 269 269 269 262 249 244 245
nan nan nan nan nan nan nan nan nan nan nan nan nan nan nan nan nan nan nan nan nan nan nan nan nan nan nan nan nan nan nan nan nan 299 282 260 265 268 265 259 264 257 246 244
nan nan nan nan nan nan nan nan nan nan nan nan nan nan nan nan nan nan nan nan nan nan nan nan nan nan nan nan nan nan nan nan nan 316 292 265 261 268 277 277 265 267 265 254
nan nan nan nan nan nan nan nan nan nan nan nan nan nan nan nan nan nan nan nan nan nan nan nan nan nan nan nan nan nan nan nan nan 311 304 280 271 269 255 283 285 270 269 260
nan nan nan nan nan nan nan nan nan nan nan nan nan nan nan nan nan nan nan nan nan nan nan nan nan nan nan nan nan nan nan 249 nan 310 302 285 277 271 272 283 289 267 259 258
nan nan nan nan nan nan nan nan nan nan nan nan nan nan nan nan nan nan nan nan nan nan nan nan nan nan nan nan nan nan 250 252 252 287 289 280 280 273 279 294 283 271 252 248
nan nan nan nan nan nan nan nan nan nan nan nan nan nan nan nan nan nan nan nan nan nan nan nan nan nan nan nan nan nan 233 238 235 243 264 276 281 269 290 293 278 264 254 251
nan nan nan nan nan nan nan nan nan nan nan nan nan nan nan nan nan nan nan nan nan nan nan nan nan nan nan nan nan nan 222 219 233 233 239 245 261 261 267 267 267 263 257 248
nan nan nan nan nan nan nan nan nan nan nan nan nan nan nan nan nan 303 299 nan nan nan nan nan nan nan nan nan nan nan nan nan 218 237 242 253 249 249 253 266 276 271 257 251
nan nan nan nan nan nan nan nan nan nan nan nan nan nan nan nan nan nan nan nan nan nan nan nan 273 262 nan nan nan nan nan nan 207 222 228 237 242 246 248 252 255 259 263 255
nan nan nan nan nan nan nan nan nan nan nan nan nan nan nan nan nan nan nan nan nan nan nan nan 276 263 256 nan nan nan nan nan nan 220 220 229 236 241 246 253 261 265 268 260
nan nan nan nan nan nan nan nan nan nan nan nan 313 nan nan nan nan nan nan nan nan nan nan nan nan nan nan 242 nan nan nan nan nan nan 224 228 238 249 251 250 250 266 267 266
nan nan nan nan nan nan nan nan nan nan nan nan nan nan nan nan nan nan nan nan nan nan nan nan nan nan nan nan nan nan nan nan nan nan nan 220 224 239 258 264 259 262 269 274
nan nan nan nan nan nan nan nan nan nan nan nan nan nan nan 289 nan nan nan nan nan nan nan nan nan nan nan nan nan nan nan nan nan nan nan nan 219 231 261 264 262 276 276 276
nan nan nan nan nan nan nan nan nan nan nan nan nan 299 290 262 nan nan nan nan nan nan nan nan nan nan nan nan nan nan nan nan nan nan nan nan 212 227 263 nan 265 269 nan nan
nan nan nan nan nan nan nan nan nan nan nan nan 346 333 nan nan nan nan nan nan nan nan nan nan nan nan nan nan nan nan nan nan nan nan nan nan nan nan nan nan 266 269 nan 267
nan nan nan nan nan nan nan nan nan nan nan 326 326 nan nan nan nan nan nan nan nan nan nan nan nan nan nan nan nan nan nan nan nan nan nan nan nan nan nan nan 267 265 nan 266
nan nan nan nan nan nan nan nan nan nan nan nan nan nan nan nan nan nan nan nan nan nan nan nan nan nan nan nan nan nan nan nan nan nan nan nan nan nan nan nan 259 nan nan nan
nan nan nan nan nan nan nan nan nan nan nan nan nan nan nan nan nan nan nan nan nan nan nan nan nan nan nan nan nan nan nan nan nan nan nan nan nan nan nan nan 262 nan nan nan
nan nan nan nan nan nan nan nan nan nan nan nan nan nan nan nan nan nan nan nan nan nan nan nan nan nan nan nan nan nan nan nan nan nan nan nan nan nan nan nan nan nan nan nan
nan nan nan nan nan nan nan nan nan nan nan nan nan nan nan nan nan nan nan nan nan nan nan nan nan nan nan nan nan nan nan nan nan nan nan nan nan nan nan nan 272 nan nan nan
nan nan nan nan nan nan nan nan nan nan nan nan nan nan nan nan nan nan nan nan nan nan nan nan nan nan nan nan nan nan nan nan nan nan nan nan nan 246 nan 272 nan nan nan nan
nan nan nan nan nan nan nan nan nan nan nan nan nan nan nan nan nan nan nan nan nan nan nan nan nan nan nan nan nan nan nan nan nan nan nan nan nan nan nan nan nan nan nan nan
nan nan nan nan nan nan nan nan nan nan nan nan nan nan nan nan nan nan nan nan nan nan nan nan nan nan nan nan nan nan nan nan nan nan nan nan nan nan nan nan nan nan nan nan
nan nan nan nan nan nan nan nan nan nan nan nan nan nan nan nan nan nan nan nan nan nan nan nan nan nan nan nan nan nan nan nan nan nan nan nan nan nan nan nan nan nan nan nan
nan nan nan nan nan nan nan nan nan nan nan nan nan nan nan nan nan nan nan nan nan nan nan nan nan nan nan nan nan nan nan nan nan nan nan nan nan nan nan nan nan nan nan nan